Regional Weather Roundup
Issued by NWS

Home | Current Version | Previous Version | Text Only | Print | Product List | Glossary On
Versions: 1 2 3 4 5 6 7 8 9 10 11 12 13 14 15 16 17 18 19 20 21 22 23 24 25 26 27 28 29 30 31 32 33 34 35 36 37 38 39 40 41 42 43 44 45 46 47 48 49 50
000
ASUS43 KDTX 052110
RWRMI
MICHIGAN HOURLY REGIONAL WEATHER ROUNDUP
NATIONAL WEATHER SERVICE DETROIT/PONTIAC MI
500 PM EDT SUN JUL 05 2015

NOTE: "FAIR" INDICATES FEW OR NO CLOUDS BELOW 12,000 FEET WITH NO
SIGNIFICANT WEATHER AND/OR OBSTRUCTION TO VISIBILITY.

MIZ047>049-052>055-059>063-066>070-074>076-081>083-052200-
SOUTHEAST LOWER MICHIGAN

CITY           SKY/WX    TMP DP  RH WIND       PRES   REMARKS
ADRIAN         PTSUNNY   80  58  46 S5        30.10F
ALMA           SUNNY     82  58  44 SW6       30.08F
ANN ARBOR      MOSUNNY   80  61  52 S7        30.09F
BAD AXE        MOSUNNY   80  59  47 S6        30.09F
CARO           MOSUNNY   82  62  51 CALM      30.08F
DETROIT CITY   MOSUNNY   80  59  48 SE10      30.10F
DETROIT        PTSUNNY   81  54  39 SE12      30.10F
FLINT          SUNNY     84  61  45 VRB5      30.09F
GROSSE ILE     MOSUNNY   73  63  68 S7        30.09F
HILLSDALE      MOSUNNY   80  57  44 SE3       30.10F
HOWELL         MOSUNNY   81  58  46 CALM      30.10S

CITY           SKY/WX    TMP DP  RH WIND       PRES   REMARKS
JACKSON        SUNNY     81  60  48 E5        30.10S
LAMBERTVILLE   PTSUNNY   79  56  46 E7        30.10F
LANSING        SUNNY     81  60  48 S6        30.09S
LAPEER         FAIR      82  55  40 S7        30.09F
MASON          SUNNY     79  61  53 SW3       30.09S
MONROE         PTSUNNY   76  57  51 E6        30.09F
MT. CLEMENS    MOSUNNY   79  61  54 SE12      30.08F
PONTIAC        PTSUNNY   81  58  45 S6        30.09F
PORT HOPE        N/A     71  64  78 E12       30.09S
PORT HURON     MOSUNNY   79  61  53 S7        30.10F
TRI CITIES     SUNNY     84  58  40 SW9       30.08F
MIDLAND        FAIR      83  58  42 S5        30.06F
TROY           SUNNY     84  53  34 S7        30.11S
SAGINAW HB     SUNNY     81  59  47 S3        30.07F
$$
MIZ043>046-050>051-056>058-064>065-071>073-077>080-052200-
SOUTHWEST LOWER MICHIGAN

CITY           SKY/WX    TMP DP  RH WIND       PRES   REMARKS
BATTLE CREEK   SUNNY     82  62  50 VRB3      30.09F
BENTON HARBOR  SUNNY     80  60  50 W8        30.06F
BIG RAPIDS     SUNNY     81  56  42 SW5       30.07S
COLDWATER      SUNNY     80  57  46 SE5       30.09S
FREMONT        FAIR      82  54  38 SW8       30.06F
HOLLAND        SUNNY     83  60  45 W8        30.08S
GRAND RAPIDS   PTSUNNY   82  60  47 S7        30.07F
IONIA          FAIR      82  61  49 SE5       30.07S
KALAMAZOO      SUNNY     82  59  45 VRB3      30.08S
LUDINGTON      SUNNY     78  62  57 SW9       30.06F
MARSHALL       SUNNY     82  60  48 S6        30.09S
MOUNT PLEASANT SUNNY     82  58  43 S3        30.06F
MUSKEGON       MOSUNNY   80  57  45 SW9       30.07F
SOUTH HAVEN    SUNNY     80  58  47 NW6       30.07S
$$
MIZ016>042-052200-
NORTHERN LOWER MICHIGAN

CITY           SKY/WX    TMP DP  RH WIND       PRES   REMARKS
ALPENA         SUNNY     79  60  52 E10       30.07F
BEAVER ISLAND  SUNNY     77  61  56 SW13G18   30.03F
BELLAIRE       SUNNY     84  60  43 SW3       30.03F
CADILLAC       SUNNY     82  60  48 S9        30.08S
CHARLEVOIX     SUNNY     79  62  55 W12       30.07F
FRANKFORT      SUNNY     78  56  47 W6        30.04F
GAYLORD        SUNNY     81  57  43 S6        30.07F
GRAYLING       MOSUNNY   80  60  50 SE6       30.08F
HARBOR SPRINGS SUNNY     74  63  69 SW6       30.04F
HOUGHTON LAKE  MOSUNNY   81  59  47 S7        30.08S
MANISTEE       SUNNY    N/A N/A N/A W9        30.05F
OSCODA         SUNNY     77  60  54 E7        30.08F
PELLSTON       SUNNY     82  63  52 W5        30.04F
ROGERS CITY    MOSUNNY   81  63  53 SE12      30.05F
TRAVERSE CITY  PTSUNNY   85  61  44 VRB6      30.02S
$$
MIZ007>008-015-052200-
EASTERN UPPER MICHIGAN

CITY           SKY/WX    TMP DP  RH WIND       PRES   REMARKS
KINROSS        SUNNY     81  63  54 S12G17    30.04S
MACKINAC ISLAN SUNNY     76  62  59 CALM      30.04F
NEWBERRY       SUNNY     77  63  62 S13       30.02S
S. S. MARIE    SUNNY     81  61  50 SW15G21   30.02F
MUNISING         N/A     83  64  52 S13G21    29.94F
$$
MIZ004>006-011>014-085-052200-
CENTRAL UPPER MICHIGAN

CITY           SKY/WX    TMP DP  RH WIND       PRES   REMARKS
MANISTIQUE     SUNNY     65  58  77 S7        30.02S HAZE
ESCANABA       SUNNY     73  63  68 S13       29.98F
MENOMINEE      SUNNY     81  61  50 S14G20    29.98F
SAWYER-GWINN   MOSUNNY   82  61  47 S14G21    29.96F
$$
MIZ001>003-009>011-084-052200-
WESTERN UPPER MICHIGAN

CITY           SKY/WX    TMP DP  RH WIND       PRES   REMARKS
IRON MOUNTAIN  MOSUNNY   82  62  50 S15       29.96F
HOUGHTON       MOSUNNY   85  60  42 S12       29.90S
COPPER HARBOR    N/A     77  62  59 VRB3      29.89F
IRONWOOD       MOSUNNY   81  61  50 SW13      29.87F
$$

ABBREVIATIONS USED IN REMARKS
   TC - TEMPERATURE IN CELSIUS
  WCI - WIND CHILL INDEX
   HX - HEAT INDEX
  VSB - VISIBILITY



USA.gov is the U.S. government's official web portal to all federal, state and local government web resources and services.